Location: Cussy
(47.0410°N, 4.6412°E)
Time: 06:32:48
(UTC+00:00)

Meteor 1-5 Rocket - Pass Details

Date: 30 November 2020
Orbit: 788 x 916 km, 81.2° (Epoch: 18 January)

Event Time Altitude Azimuth Distance (km) Brightness Sun altitude
Rises 18:04:01 0° 348° (NNW) 3,554 7.5 -21.4°
Reaches altitude 10° 18:06:31 10° 349° (N) 2,599 6.7 -21.8°
Maximum altitude 18:12:29 86° 78° (ENE) 899 4.2 -22.8°
Drops below altitude 10° 18:18:14 10° 169° (S) 2,509 6.6 -23.8°
Sets 18:20:37 0° 170° (S) 3,423 7.3 -24.2°
